This is the latest recevied weather packets stored in our database for station/object LX0APE-4. If no packets are shown the sender has not sent any weather packets the latest 10 day(s).
| Time | Temp. | Humidity | Pressure | Rain* | Wind** | Luminosity | Snow |
|---|---|---|---|---|---|---|---|
| 1777906314 | 17.78° C | 59% | 5010.3 hPa | 0 mm | - | - | - |
| 1777906014 | 17.78° C | 58% | 5010.2 hPa | 0 mm | - | - | - |
| 1777905714 | 17.78° C | 58% | 5010.4 hPa | 0 mm | - | - | - |
| 1777905414 | 17.78° C | 58% | 5010.4 hPa | 0 mm | - | - | - |
| 1777905114 | 17.78° C | 58% | 5010.4 hPa | 0 mm | - | - | - |
| 1777904814 | 18.33° C | 57% | 5010.5 hPa | 0 mm | - | - | - |
| 1777904514 | 18.33° C | 56% | 5010.5 hPa | 0 mm | - | - | - |
| 1777904214 | 18.89° C | 55% | 5010.5 hPa | 0 mm | - | - | - |
| 1777903914 | 18.89° C | 55% | 5010.4 hPa | 0 mm | - | - | - |
| 1777903614 | 19.44° C | 54% | 5010.6 hPa | 0 mm | - | - | - |
| 1777903314 | 19.44° C | 54% | 5010.5 hPa | 0 mm | - | - | - |
| 1777903014 | 20° C | 55% | 5010.6 hPa | 0 mm | - | - | - |
| 1777902714 | 20° C | 55% | 5010.7 hPa | 0 mm | - | - | - |
| 1777902415 | 19.44° C | 56% | 5010.6 hPa | 0 mm | - | - | - |
| 1777902115 | 18.89° C | 57% | 5010.5 hPa | 0 mm | - | - | - |
| 1777901815 | 18.89° C | 56% | 5010.6 hPa | 0 mm | - | - | - |
| 1777901515 | 18.89° C | 57% | 5010.6 hPa | 0 mm | - | - | - |
| 1777901214 | 18.89° C | 59% | 5010.6 hPa | 0 mm | - | - | - |
| 1777900915 | 18.33° C | 60% | 5010.8 hPa | 0 mm | - | - | - |
| 1777900615 | 18.33° C | 62% | 5010.8 hPa | 0 mm | - | - | - |
| 1777900314 | 18.33° C | 62% | 5010.7 hPa | 0 mm | - | - | - |
| 1777900019 | 17.78° C | 63% | 5010.8 hPa | 0 mm | - | - | - |
| 1777900015 | 17.78° C | 63% | 5010.8 hPa | 0 mm | - | - | - |
| 1777899715 | 17.78° C | 62% | 5010.9 hPa | 0 mm | - | - | - |
| 1777899415 | 17.78° C | 63% | 5010.9 hPa | 0 mm | - | - | - |
* Rain latest hour (hover to see other rain measurements)
** Current wind speed in m/s (hover to see current wind gust speed)